Overview Statistics Trail Chart Weather Telemetry Raw packets
 

This is the latest recevied weather packets stored in our database for station/object KC5TIL. If no packets are shown the sender has not sent any weather packets the latest 10 day(s).

<< 88 89 90 91 92 93 94 >>
Time Temp. Humidity Pressure Rain* Wind** Luminosity Snow
1787955438 38.89° C 32% 1014.6 hPa 0 mm - 333 W/m² -
1787955136 38.89° C 33% 1014.6 hPa 0 mm - 359 W/m² -
1787954833 38.89° C 30% 1014.8 hPa 0 mm - 342 W/m² -
1787954528 38.89° C 30% 1014.9 hPa 0 mm - 371 W/m² -
1787954228 38.89° C 30% 1014.9 hPa 0 mm - 394 W/m² -
1787953922 38.33° C 33% 1015 hPa 0 mm - 414 W/m² -
1787953621 38.89° C 37% 1014.9 hPa 0 mm - 409 W/m² -
1787953315 38.89° C 30% 1015 hPa 0 mm - 423 W/m² -
1787953014 38.89° C 31% 1014.9 hPa 0 mm - 434 W/m² -
1787952707 38.89° C 31% 1015.1 hPa 0 mm - 468 W/m² -
1787952402 38.89° C 30% 1015.2 hPa 0 mm - 485 W/m² -
1787952107 38.89° C 32% 1015.4 hPa 0 mm - 436 W/m² -
1787951798 39.44° C 33% 1015.5 hPa 0 mm - 445 W/m² -
1787951493 38.89° C 35% 1015.6 hPa 0 mm - 497 W/m² -
1787951190 38.89° C 34% 1015.6 hPa 0 mm - 536 W/m² -
1787950885 38.89° C 30% 1015.9 hPa 0 mm - 542 W/m² -
1787950580 38.89° C 39% 1015.8 hPa 0 mm - 525 W/m² -
1787950276 38.89° C 37% 1015.9 hPa 0 mm - 545 W/m² -
1787949973 38.89° C 33% 1016.3 hPa 0 mm - 511 W/m² -
1787949672 38.89° C 35% 1016.3 hPa 0 mm - 531 W/m² -
1787949375 39.44° C 31% 1016.3 hPa 0 mm - 603 W/m² -
1787949061 38.89° C 33% 1016.4 hPa 0 mm - 575 W/m² -
1787948757 38.33° C 34% 1016.6 hPa 0 mm - 506 W/m² -
1787948457 38.89° C 35% 1016.6 hPa 0 mm - 473 W/m² -
1787948152 39.44° C 34% 1016.7 hPa 0 mm - 517 W/m² -

* Rain latest hour (hover to see other rain measurements)
** Current wind speed in m/s (hover to see current wind gust speed)